When you browse on this site, cookies collect data to enhance your experience and personalize the content and advertising you see.
Visit our Privacy Policy to learn more. By continuing to use the site, you agree to this use of cookies and data.
  • In Hungary
  • List of Countries
  • For 7 days
  • Water Temperature
  • Weather Map
  • News
  • Weather Widgets
  • user-avatar
    Login

    Hourly Weather Cherkas'ke

    Today, 20 September, Friday

    Time Temperature Precipitation Wind Pressure Humidity
    00:00 +11°C° 0 mm 1 mps 757 mmHg 57%
    01:00 +10°C° 0 mm 1 mps 757 mmHg 61%
    02:00 +10°C° 0 mm 1 mps 757 mmHg 64%
    03:00 +9°C° 0 mm 1 mps 757 mmHg 66%
    04:00 +9°C° 0 mm 1 mps 757 mmHg 67%
    05:00 +9°C° 0 mm 1 mps 757 mmHg 69%
    06:00 +10°C° 0 mm 1 mps 757 mmHg 63%
    07:00 +12°C° 0 mm 2 mps 757 mmHg 57%
    08:00 +14°C° 0 mm 2 mps 757 mmHg 51%
    09:00 +15°C° 0 mm 2 mps 756 mmHg 47%
    10:00 +16°C° 0 mm 3 mps 756 mmHg 42%
    11:00 +18°C° 0 mm 3 mps 756 mmHg 37%
    12:00 +18°C° 0.1 mm 3 mps 755 mmHg 37%
    13:00 +18°C° 0.1 mm 4 mps 755 mmHg 37%
    14:00 +18°C° 0.1 mm 4 mps 755 mmHg 36%
    15:00 +17°C° 0.1 mm 3 mps 754 mmHg 41%
    16:00 +16°C° 0.1 mm 3 mps 754 mmHg 45%
    17:00 +14°C° 0.1 mm 3 mps 754 mmHg 50%
    18:00 +13°C° 0.7 mm 3 mps 754 mmHg 57%
    19:00 +12°C° 0.7 mm 3 mps 755 mmHg 64%
    20:00 +10°C° 0.7 mm 3 mps 755 mmHg 71%
    21:00 +10°C° 0.2 mm 3 mps 755 mmHg 73%
    22:00 +9°C° 0.2 mm 3 mps 755 mmHg 75%
    23:00 +9°C° 0.2 mm 3 mps 755 mmHg 77%

    Tomorrow, 21 September, Saturday

    Time Temperature Precipitation Wind Pressure Humidity
    00:00 +8°C° 0 mm 3 mps 755 mmHg 80%
    01:00 +6°C° 0 mm 4 mps 755 mmHg 84%
    02:00 +6°C° 0 mm 4 mps 755 mmHg 88%
    03:00 +5°C° 0 mm 4 mps 756 mmHg 88%
    04:00 +5°C° 0 mm 4 mps 756 mmHg 88%
    05:00 +3°C° 0 mm 5 mps 756 mmHg 89%
    06:00 +6°C° 0 mm 5 mps 756 mmHg 83%
    07:00 +7°C° 0 mm 5 mps 756 mmHg 76%
    08:00 +8°C° 0 mm 5 mps 757 mmHg 70%
    09:00 +9°C° 0 mm 5 mps 757 mmHg 64%
    10:00 +10°C° 0 mm 5 mps 757 mmHg 57%
    11:00 +11°C° 0 mm 6 mps 757 mmHg 51%
    12:00 +13°C° 0 mm 6 mps 757 mmHg 48%
    13:00 +13°C° 0 mm 6 mps 757 mmHg 44%
    14:00 +14°C° 0 mm 6 mps 757 mmHg 41%
    15:00 +14°C° 0 mm 5 mps 757 mmHg 40%
    16:00 +13°C° 0 mm 5 mps 757 mmHg 39%
    17:00 +13°C° 0 mm 4 mps 757 mmHg 38%
    18:00 +11°C° 0 mm 4 mps 758 mmHg 40%
    19:00 +10°C° 0 mm 3 mps 758 mmHg 43%
    20:00 +8°C° 0 mm 2 mps 758 mmHg 45%
    21:00 +8°C° 0 mm 2 mps 758 mmHg 46%
    22:00 +8°C° 0 mm 3 mps 758 mmHg 47%
    23:00 +7°C° 0 mm 3 mps 758 mmHg 48%

    Day after tomorrow, 22 September, Sunday

    Time Temperature Precipitation Wind Pressure Humidity
    00:00 +8°C° 0 mm 3 mps 758 mmHg 46%
    01:00 +8°C° 0 mm 4 mps 757 mmHg 45%
    02:00 +9°C° 0 mm 5 mps 757 mmHg 43%
    03:00 +9°C° 0 mm 5 mps 757 mmHg 54%
    04:00 +9°C° 0 mm 5 mps 756 mmHg 64%
    05:00 +9°C° 0 mm 5 mps 756 mmHg 75%
    06:00 +10°C° 0 mm 6 mps 756 mmHg 76%
    07:00 +11°C° 0 mm 6 mps 756 mmHg 76%
    08:00 +12°C° 0 mm 7 mps 755 mmHg 77%
    09:00 +14°C° 0 mm 7 mps 755 mmHg 72%
    10:00 +15°C° 0 mm 7 mps 755 mmHg 68%
    11:00 +16°C° 0 mm 7 mps 755 mmHg 63%
    12:00 +17°C° 0.1 mm 8 mps 755 mmHg 58%
    13:00 +20°C° 0.1 mm 8 mps 754 mmHg 52%
    14:00 +21°C° 0.1 mm 9 mps 754 mmHg 47%
    15:00 +20°C° 0 mm 8 mps 754 mmHg 47%
    16:00 +20°C° 0 mm 7 mps 754 mmHg 47%
    17:00 +20°C° 0 mm 5 mps 754 mmHg 48%
    18:00 +17°C° 0 mm 5 mps 754 mmHg 53%
    19:00 +17°C° 0 mm 4 mps 754 mmHg 58%
    20:00 +14°C° 0 mm 3 mps 754 mmHg 63%
    21:00 +14°C° 0 mm 3 mps 754 mmHg 65%
    22:00 +14°C° 0 mm 4 mps 754 mmHg 67%
    23:00 +13°C° 0 mm 4 mps 755 mmHg 69%

    23 September, Monday

    Time Temperature Precipitation Wind Pressure Humidity
    00:00 +13°C° 0 mm 4 mps 755 mmHg 72%
    01:00 +12°C° 0 mm 3 mps 755 mmHg 74%
    02:00 +12°C° 0 mm 3 mps 756 mmHg 76%
    03:00 +11°C° 0 mm 3 mps 756 mmHg 79%
    04:00 +11°C° 0 mm 3 mps 756 mmHg 83%
    05:00 +10°C° 0 mm 2 mps 757 mmHg 86%
    06:00 +12°C° 0 mm 2 mps 757 mmHg 78%
    07:00 +13°C° 0 mm 2 mps 757 mmHg 70%
    08:00 +15°C° 0 mm 2 mps 758 mmHg 62%
    09:00 +16°C° 0 mm 2 mps 758 mmHg 57%
    10:00 +17°C° 0 mm 2 mps 758 mmHg 52%
    11:00 +18°C° 0 mm 2 mps 758 mmHg 47%
    12:00 +18°C° 0 mm 2 mps 758 mmHg 45%
    13:00 +20°C° 0 mm 1 mps 757 mmHg 43%
    14:00 +20°C° 0 mm 1 mps 757 mmHg 41%
    15:00 +19°C° 0 mm 2 mps 757 mmHg 42%
    16:00 +18°C° 0 mm 2 mps 756 mmHg 44%
    17:00 +18°C° 0 mm 2 mps 756 mmHg 46%
    18:00 +16°C° 0 mm 3 mps 756 mmHg 47%
    19:00 +14°C° 0 mm 3 mps 757 mmHg 48%
    20:00 +12°C° 0 mm 3 mps 757 mmHg 49%
    21:00 +12°C° 0 mm 3 mps 757 mmHg 50%
    22:00 +12°C° 0 mm 3 mps 757 mmHg 50%
    23:00 +12°C° 0 mm 3 mps 757 mmHg 50%

    24 September, Tuesday

    Time Temperature Precipitation Wind Pressure Humidity
    00:00 +12°C° 0 mm 3 mps 756 mmHg 51%
    01:00 +12°C° 0 mm 3 mps 756 mmHg 53%
    02:00 +12°C° 0 mm 3 mps 756 mmHg 54%
    03:00 +13°C° 0 mm 2 mps 756 mmHg 58%
    04:00 +13°C° 0 mm 2 mps 756 mmHg 63%
    05:00 +13°C° 0 mm 2 mps 755 mmHg 67%
    06:00 +14°C° 0 mm 2 mps 755 mmHg 65%
    07:00 +15°C° 0 mm 1 mps 755 mmHg 63%
    08:00 +16°C° 0 mm 1 mps 755 mmHg 61%
    09:00 +19°C° 0 mm 1 mps 755 mmHg 55%
    10:00 +19°C° 0 mm 2 mps 755 mmHg 49%
    11:00 +21°C° 0 mm 2 mps 755 mmHg 43%
    12:00 +23°C° 0 mm 2 mps 755 mmHg 40%
    13:00 +22°C° 0 mm 3 mps 754 mmHg 37%
    14:00 +24°C° 0 mm 3 mps 754 mmHg 34%
    15:00 +23°C° 0 mm 2 mps 754 mmHg 37%
    16:00 +21°C° 0 mm 2 mps 754 mmHg 40%
    17:00 +20°C° 0 mm 2 mps 754 mmHg 43%
    18:00 +19°C° 0 mm 2 mps 754 mmHg 50%
    19:00 +18°C° 0 mm 2 mps 754 mmHg 56%
    20:00 +17°C° 0 mm 2 mps 754 mmHg 63%
    21:00 +18°C° 0 mm 1 mps 754 mmHg 65%
    22:00 +18°C° 0 mm 1 mps 754 mmHg 67%
    23:00 +16°C° 0 mm 1 mps 754 mmHg 69%

    25 September, Wednesday

    Time Temperature Precipitation Wind Pressure Humidity
    00:00 +16°C° 0 mm 1 mps 754 mmHg 69%
    01:00 +16°C° 0 mm 1 mps 754 mmHg 69%
    02:00 +16°C° 0 mm 1 mps 754 mmHg 69%
    03:00 +16°C° 0 mm 2 mps 754 mmHg 70%
    04:00 +15°C° 0 mm 2 mps 754 mmHg 71%
    05:00 +15°C° 0 mm 2 mps 754 mmHg 71%
    06:00 +16°C° 0 mm 2 mps 754 mmHg 70%
    07:00 +16°C° 0 mm 2 mps 755 mmHg 68%
    08:00 +16°C° 0 mm 2 mps 755 mmHg 66%
    09:00 +18°C° 0 mm 2 mps 755 mmHg 61%
    10:00 +19°C° 0 mm 2 mps 755 mmHg 56%
    11:00 +20°C° 0 mm 2 mps 755 mmHg 51%
    12:00 +21°C° 0 mm 2 mps 755 mmHg 48%
    13:00 +23°C° 0 mm 1 mps 755 mmHg 44%
    14:00 +24°C° 0 mm 1 mps 754 mmHg 41%
    15:00 +23°C° 0 mm 1 mps 754 mmHg 43%
    16:00 +23°C° 0 mm 1 mps 754 mmHg 44%
    17:00 +21°C° 0 mm 2 mps 754 mmHg 46%
    18:00 +20°C° 0 mm 2 mps 755 mmHg 49%
    19:00 +19°C° 0 mm 3 mps 755 mmHg 52%
    20:00 +18°C° 0 mm 3 mps 755 mmHg 55%
    21:00 +18°C° 0 mm 3 mps 755 mmHg 56%
    22:00 +17°C° 0 mm 3 mps 755 mmHg 56%
    23:00 +17°C° 0 mm 3 mps 755 mmHg 57%
    Show more